[[{"header":{"parameterUnit":"m.s-1","parameterCategory":1,"la1":30.2991,"la2":30.254,"lo1":-89.0895,"lo2":-89.0444,"dy":0.0017,"dx":0.0017,"nx":28,"ny":28,"refTime":"2024-10-15T09:00:00:Z","depth":0,"parameterNumber":2,"parameterNumberName":"U-component_of_WINDS"},"data":[0,0,0,0,0,0,0,0,0,0,0,0,0,0,0,0,0,0,0,0,0,0,0,0,0,0,0,0,0,0,0,0,0,0,0,0,0,0,0,0,0,0,0,0,0,0,0,0,0,0,0,0,0,0,0,0,0,0,-4.9393,-4.9394,0,-4.9445,-4.9446,-4.9446,-4.923,-4.9224,-4.9217,-4.9211,-4.9267,-4.9275,-4.9282,0,0,0,0,0,0,0,0,0,0,0,0,0,-4.9108,-4.9115,-4.9393,-4.9394,-4.9395,-4.9445,-4.9446,-4.9446,-4.9231,-4.9224,-4.9216,-4.9209,-4.9265,-4.9274,-4.9283,0,0,0,0,0,0,0,0,0,0,0,0,0,-4.9204,-4.9117,-4.9393,-4.9293,-4.9285,-4.9445,-4.9446,-4.9447,-4.9233,-4.9223,-4.9214,-4.9205,-4.9262,-4.9273,-4.9284,-4.9543,0,0,-4.9318,-4.9323,0,0,0,0,0,0,0,0,-4.9198,-4.9214,-4.9307,-4.93,-4.9291,-4.9321,-4.9365,-4.9479,-4.9235,-4.9253,-4.9211,-4.92,-4.9293,-4.9301,-4.9332,-4.9546,-4.9548,-4.9319,-4.9325,-4.933,-4.9333,0,0,0,0,0,0,0,-4.9192,-4.9211,-4.9414,-4.9309,-4.9299,-4.9246,-4.9249,-4.9386,-4.9326,-4.9251,-4.9235,-4.9244,-4.9287,-4.9322,-4.9332,-4.9549,-4.9318,-4.9328,-4.9335,-4.934,-4.9977,-4.9987,0,0,0,0,0,0,-4.9199,-4.9207,-4.9412,-4.9415,-4.922,-4.9259,-4.9262,-4.9321,-4.9324,-4.9315,-4.9252,-4.9234,-4.9307,-4.9319,-4.9333,-4.9637,-4.933,-4.9341,-4.9347,-4.9967,-4.9979,-4.999,0,0,0,0,0,0,-4.9193,-4.9219,-4.941,-4.9307,-4.9327,-4.9274,-4.9342,-4.9328,-4.9362,-4.9325,-4.9313,-4.9299,-4.93,-4.9317,-4.9492,-4.9636,-4.9346,-4.9356,-4.9955,-4.9971,-4.9985,-5.0247,0,0,0,0,0,0,-4.9186,-4.9218,-4.9317,-4.9311,-4.9333,-4.957,-4.9351,-4.9335,-4.9381,-4.9358,-4.9366,-4.9358,-4.9294,-4.9477,-4.9503,-4.9646,-4.9364,-4.9942,-4.9962,-4.998,-5.0226,-5.027,-5.0307,0,0,0,0,0,-4.9177,-4.9389,-4.9323,-4.9349,-4.9455,-4.9578,-4.9591,-4.9513,-4.9394,-4.9492,-4.9468,-4.9357,-4.9615,-4.9496,-4.9524,-4.9673,-4.9932,-4.9956,-4.9979,-5.0207,-5.0261,-5.0306,0,0,0,0,0,0,-4.9415,-4.9387,-4.9313,-4.953,-4.9558,-4.9541,-4.9663,-4.9573,-4.9636,-4.9612,-4.9512,-4.9516,-4.9708,-4.9707,-4.9575,-4.9923,-4.9753,-4.9783,-4.9917,-4.9968,-5.0008,-5.0006,-4.9374,0,0,0,0,0,-4.9493,-4.9595,-4.9564,-4.9759,-4.9776,-4.9718,-4.9769,-4.9706,-4.9731,-4.9742,-4.973,-4.976,-4.9847,-4.9907,-4.9985,-5.0223,-5.0222,-5.0338,-5.0379,-5.0413,-5.0441,-5.0566,-5.0618,-5.0066,-5.0066,-5.0066,0,0,-4.9655,-4.9652,-4.9723,-4.9807,-4.9821,-4.9929,-4.973,-4.9853,-4.9932,-4.9761,-4.9925,-4.9918,-4.9944,-5.0152,-5.0242,-5.0157,-5.0592,-5.0442,-5.047,-5.0479,-5.0595,-5.0647,-5.0694,-5.0082,-5.0079,-5.0077,0,0,-5.0006,-5.0014,-5.0176,-5.0194,-5.0218,-5.0177,-5.0216,-5.0213,-5.0201,-5.0364,-5.0238,-5.033,-5.0482,-5.0506,-5.0538,-5.0895,-5.0796,-5.0923,-5.1138,-5.1261,-5.1304,-5.1342,-5.1471,-5.1518,-5.095,-5.0951,-5.0951,0,-5.0206,-5.0363,-5.0272,-5.0403,-5.0444,-5.0291,-5.0455,-5.0477,-5.0526,-5.0558,-5.046,-5.0647,-5.0653,-5.0864,-5.0951,-5.0982,-5.1023,-5.0923,-5.1305,-5.1342,-5.1377,-5.1498,-5.1546,-5.0966,-5.0964,-5.0963,-5.0961,0,-5.0606,-5.0717,-5.0845,-5.0895,-5.0949,-5.1097,-5.1028,-5.1094,-5.1025,-5.0995,-5.1162,-5.1164,-5.124,-5.1284,-5.122,-5.1486,-5.1432,-5.1322,-5.115,-5.1446,-5.1558,-5.1604,-5.0988,-5.0982,-5.0978,-5.0974,0,0,-5.1113,-5.1108,-5.1157,-5.1177,-5.119,-5.1274,-5.1413,-5.1486,-5.1545,-5.1582,-5.1697,-5.1828,-5.1725,-5.1761,-5.1697,-5.1805,-5.2088,-5.168,-5.1679,-5.1757,-5.2382,-5.2467,-5.2522,-5.2021,-5.2029,-5.2036,-5.238,0,-5.1458,-5.1696,-5.1617,-5.1859,-5.1959,-5.1815,-5.1936,-5.1958,-5.1932,-5.2014,-5.1985,-5.208,-5.1936,-5.1957,-5.2057,-5.2033,-5.2212,-5.2006,-5.2128,-5.2133,-5.2128,-5.258,-5.2671,-5.2996,-5.2423,-5.2431,-5.2436,0,-5.1893,-5.1947,-5.2199,-5.2193,-5.2232,-5.2343,-5.2402,-5.2482,-5.2502,-5.2476,-5.2516,-5.2428,-5.2564,-5.2389,-5.2576,-5.2437,-5.2481,-5.2476,-5.2487,-5.2497,-5.2305,-5.2605,-5.3098,-5.3148,-5.2504,-5.2499,-5.2494,0,-5.2239,-5.2374,-5.2541,-5.2563,-5.256,-5.2641,-5.2644,-5.2655,-5.2703,-5.2754,-5.2784,-5.2852,-5.289,-5.2944,-5.2876,-5.2755,-5.3073,-5.2892,-5.3055,-5.3058,-5.3131,-5.3128,-5.3641,-5.3157,-5.3157,-5.3156,-5.3155,0,-5.2634,-5.2794,-5.2696,-5.28,-5.2975,-5.2881,-5.3057,-5.3043,-5.3054,-5.3152,-5.303,-5.3125,-5.3029,-5.3115,-5.3062,-5.3225,-5.3242,-5.3225,-5.321,-5.3238,-5.324,-5.3267,-5.3244,-5.3168,-5.3166,-5.3163,-5.3161,0,-5.3051,-5.2992,-5.3165,-5.3148,-5.3147,-5.3277,-5.3261,-5.3356,-5.332,-5.3446,-5.347,-5.3415,-5.3509,-5.3446,-5.3542,-5.3506,-5.3719,-5.3671,-5.3713,-5.3701,-5.3867,-5.3853,-5.4417,-5.4486,-5.3958,-5.3963,-5.3967,0,-5.3308,-5.3428,-5.3422,-5.3478,-5.3489,-5.3582,-5.3629,-5.3541,-5.3596,-5.3627,-5.3719,-5.3802,-5.3865,-5.4023,-5.3991,-5.4063,-5.4017,-5.421,-5.4028,-5.4051,-5.4022,-5.4016,-5.4028,-5.4248,-5.4254,-5.4259,-5.4263,0,-5.3771,-5.3735,-5.3808,-5.3872,-5.3932,-5.3978,-5.4014,-5.4067,-5.3978,-5.4046,-5.414,-5.4189,-5.4284,-5.437,-5.4429,-5.4431,-5.4334,-5.432,-5.4362,-5.4392,-5.4412,-5.4405,-5.3815,-5.4308,-5.4304,-5.43,-5.4298,-5.4296,-5.4117,-5.4216,-5.4227,-5.4312,-5.4329,-5.4365,-5.4453,-5.4427,-5.4504,-5.4575,-5.4518,-5.4631,-5.4646,-5.4715,-5.473,-5.4817,-5.4738,-5.4799,-5.4814,-5.4831,-5.4855,-5.4396,-5.4827,-5.4826,-5.4824,-5.4823,-5.4822,0,-5.4574,-5.4573,-5.4652,-5.4706,-5.4773,-5.4672,-5.4706,-5.4769,-5.487,-5.4892,-5.4955,-5.5063,-5.5144,-5.5118,-5.519,-5.5265,-5.5222,-5.5287,-5.5282,-5.5284,-5.4921,-5.4878,-5.532,-5.532,-5.532,-5.532,-5.532,-5.532,-5.482,-5.4982,-5.4948,-5.5117,-5.5114,-5.5223,-5.5251,-5.5283,-5.53,-5.5426,-5.5492,-5.5474,-5.5477,-5.5547,-5.5617,-5.5607,-5.564,-5.5722,-5.5697,-5.5359,-5.531,-5.5263,-5.5222,-5.573,-5.573,-5.6052,-5.6055,-5.6058]},{"header":{"parameterUnit":"m.s-1","parameterCategory":1,"la1":30.2991,"la2":30.254,"lo1":-89.0895,"lo2":-89.0444,"dy":0.0017,"dx":0.0017,"nx":28,"ny":28,"refTime":"2024-10-15T09:00:00:Z","depth":0,"parameterNumber":3,"parameterNumberName":"V-component_of_WINDS"},"data":[0,0,0,0,0,0,0,0,0,0,0,0,0,0,0,0,0,0,0,0,0,0,0,0,0,0,0,0,0,0,0,0,0,0,0,0,0,0,0,0,0,0,0,0,0,0,0,0,0,0,0,0,0,0,0,0,0,0,-4.7776,-4.7777,0,-4.783,-4.7831,-4.7832,-4.7784,-4.7782,-4.778,-4.7779,-4.7831,-4.7834,-4.7837,0,0,0,0,0,0,0,0,0,0,0,0,0,-4.7626,-4.7629,-4.7776,-4.7777,-4.7777,-4.783,-4.7831,-4.7832,-4.7785,-4.7782,-4.778,-4.7778,-4.783,-4.7833,-4.7837,0,0,0,0,0,0,0,0,0,0,0,0,0,-4.7687,-4.763,-4.7776,-4.776,-4.776,-4.783,-4.7831,-4.7832,-4.7785,-4.7782,-4.7779,-4.7777,-4.7828,-4.7833,-4.7838,-4.7925,0,0,-4.7852,-4.7854,0,0,0,0,0,0,0,0,-4.7683,-4.7692,-4.7762,-4.7762,-4.7761,-4.7798,-4.7797,-4.7863,-4.7786,-4.7775,-4.7779,-4.7775,-4.7822,-4.7827,-4.7843,-4.7928,-4.793,-4.7853,-4.7856,-4.7858,-4.7859,0,0,0,0,0,0,0,-4.7679,-4.769,-4.7797,-4.7763,-4.7762,-4.7749,-4.7754,-4.7809,-4.7814,-4.7776,-4.7773,-4.778,-4.7821,-4.7839,-4.7844,-4.7931,-4.7853,-4.7857,-4.786,-4.7862,-4.8085,-4.8088,0,0,0,0,0,0,-4.7677,-4.7687,-4.7796,-4.7799,-4.7714,-4.7754,-4.776,-4.7789,-4.7813,-4.7814,-4.7782,-4.7778,-4.7832,-4.7839,-4.7846,-4.7947,-4.7858,-4.7862,-4.7865,-4.8082,-4.8086,-4.8089,0,0,0,0,0,0,-4.7674,-4.7688,-4.7793,-4.7742,-4.7754,-4.776,-4.7792,-4.7791,-4.7809,-4.7818,-4.7818,-4.78,-4.783,-4.7839,-4.7905,-4.7948,-4.7864,-4.7869,-4.8079,-4.8083,-4.8088,-4.8152,0,0,0,0,0,0,-4.767,-4.7687,-4.7722,-4.7743,-4.7757,-4.7854,-4.7795,-4.7794,-4.7818,-4.7812,-4.7835,-4.7836,-4.7829,-4.7898,-4.791,-4.7953,-4.7872,-4.8075,-4.8081,-4.8086,-4.8146,-4.8158,-4.8168,0,0,0,0,0,-4.7665,-4.7738,-4.7724,-4.7737,-4.7801,-4.7856,-4.7864,-4.7855,-4.7822,-4.7855,-4.7861,-4.7835,-4.7942,-4.7905,-4.7918,-4.7963,-4.8072,-4.8079,-4.8086,-4.814,-4.8155,-4.8168,0,0,0,0,0,0,-4.772,-4.774,-4.7725,-4.7807,-4.783,-4.7848,-4.7891,-4.7872,-4.7905,-4.7898,-4.7884,-4.7889,-4.7958,-4.7968,-4.7927,-4.8047,-4.8001,-4.8011,-4.8038,-4.8053,-4.8064,-4.8059,-4.7876,0,0,0,0,0,-4.7742,-4.7787,-4.7801,-4.7872,-4.7885,-4.7886,-4.791,-4.7901,-4.7924,-4.7933,-4.7943,-4.7966,-4.8003,-4.8029,-4.8065,-4.8147,-4.8149,-4.8184,-4.8196,-4.8205,-4.8213,-4.8253,-4.8268,-4.8112,-4.8112,-4.8112,0,0,-4.7788,-4.7804,-4.7833,-4.7884,-4.7901,-4.7945,-4.7895,-4.7944,-4.7976,-4.794,-4.8002,-4.8011,-4.8035,-4.8108,-4.8141,-4.8118,-4.8256,-4.8214,-4.8221,-4.8224,-4.8262,-4.8276,-4.8289,-4.8117,-4.8116,-4.8115,0,0,-4.7892,-4.7911,-4.797,-4.7988,-4.8014,-4.8014,-4.8029,-4.8049,-4.8053,-4.8116,-4.8089,-4.8126,-4.8193,-4.821,-4.8227,-4.8336,-4.8312,-4.8348,-4.8406,-4.8445,-4.8458,-4.8468,-4.8504,-4.8517,-4.8356,-4.8356,-4.8356,0,-4.7945,-4.8012,-4.8003,-4.8054,-4.8075,-4.8045,-4.8103,-4.8121,-4.8157,-4.8172,-4.8146,-4.8227,-4.8242,-4.8317,-4.8343,-4.8359,-4.8373,-4.8344,-4.8457,-4.8468,-4.8477,-4.8511,-4.8525,-4.836,-4.836,-4.8359,-4.8359,0,-4.8074,-4.812,-4.8165,-4.82,-4.8227,-4.8282,-4.8278,-4.8306,-4.8294,-4.8296,-4.8358,-4.8374,-4.8411,-4.8429,-4.8418,-4.8502,-4.8486,-4.8459,-4.8412,-4.8496,-4.8527,-4.854,-4.8366,-4.8364,-4.8363,-4.8362,0,0,-4.8215,-4.8243,-4.826,-4.8274,-4.83,-4.8335,-4.8386,-4.8423,-4.8445,-4.8471,-4.8512,-4.8569,-4.8543,-4.8563,-4.8553,-4.8589,-4.8669,-4.8557,-4.8557,-4.8574,-4.8758,-4.8776,-4.8791,-4.8654,-4.8657,-4.8659,-4.8755,0,-4.8318,-4.8408,-4.84,-4.8485,-4.8526,-4.8497,-4.8541,-4.8561,-4.8564,-4.8597,-4.86,-4.8639,-4.8604,-4.8615,-4.8649,-4.8652,-4.8705,-4.8645,-4.8689,-4.8691,-4.8681,-4.8808,-4.8828,-4.8917,-4.8767,-4.8769,-4.8771,0,-4.845,-4.848,-4.8569,-4.8586,-4.8602,-4.8643,-4.8674,-4.8707,-4.8728,-4.8727,-4.8748,-4.8732,-4.8781,-4.8735,-4.8801,-4.876,-4.8778,-4.8782,-4.8785,-4.8786,-4.8734,-4.8809,-4.8946,-4.8958,-4.879,-4.8789,-4.8787,0,-4.8539,-4.8602,-4.8662,-4.8676,-4.8698,-4.8726,-4.8737,-4.8754,-4.8776,-4.8803,-4.8816,-4.8849,-4.8866,-4.889,-4.8882,-4.885,-4.8948,-4.8902,-4.8946,-4.8947,-4.8967,-4.8965,-4.9105,-4.8983,-4.8983,-4.8983,-4.8983,0,-4.8654,-4.8708,-4.8702,-4.8739,-4.8799,-4.8788,-4.8846,-4.8853,-4.8868,-4.8904,-4.8882,-4.8916,-4.8905,-4.8937,-4.8932,-4.8985,-4.8994,-4.8992,-4.8989,-4.8993,-4.8992,-4.9002,-4.8994,-4.8986,-4.8986,-4.8985,-4.8984,0,-4.8763,-4.8762,-4.8825,-4.884,-4.8845,-4.8888,-4.89,-4.8933,-4.8934,-4.8979,-4.8989,-4.899,-4.9026,-4.9022,-4.9063,-4.9059,-4.9124,-4.9116,-4.9117,-4.9114,-4.9157,-4.9152,-4.9306,-4.9324,-4.9194,-4.9195,-4.9196,0,-4.8834,-4.8875,-4.8895,-4.8917,-4.8929,-4.8966,-4.8987,-4.8978,-4.9001,-4.9026,-4.9055,-4.909,-4.9118,-4.9178,-4.9181,-4.9211,-4.9201,-4.9253,-4.9205,-4.9206,-4.9198,-4.9194,-4.9196,-4.9261,-4.9263,-4.9264,-4.9265,0,-4.896,-4.8957,-4.8989,-4.902,-4.9046,-4.9071,-4.9092,-4.9112,-4.9104,-4.913,-4.9168,-4.9189,-4.9231,-4.9264,-4.9293,-4.9301,-4.9281,-4.928,-4.9291,-4.9293,-4.9291,-4.9289,-4.9139,-4.9276,-4.9275,-4.9274,-4.9273,-4.9273,-4.905,-4.9084,-4.9102,-4.9137,-4.9152,-4.9173,-4.9204,-4.9208,-4.9239,-4.9272,-4.9265,-4.9306,-4.9323,-4.9359,-4.9371,-4.9401,-4.9382,-4.9399,-4.9403,-4.9407,-4.941,-4.9289,-4.9407,-4.9407,-4.9406,-4.9406,-4.9406,0,-4.9171,-4.9181,-4.9214,-4.9244,-4.9272,-4.9252,-4.9274,-4.9297,-4.9334,-4.9352,-4.9379,-4.942,-4.9453,-4.9458,-4.9488,-4.9512,-4.9503,-4.9519,-4.9516,-4.9517,-4.9427,-4.9413,-4.9526,-4.9526,-4.9526,-4.9526,-4.9526,-4.9526,-4.9237,-4.9292,-4.9291,-4.9352,-4.9361,-4.9401,-4.9415,-4.9433,-4.9446,-4.9494,-4.952,-4.9524,-4.9536,-4.9566,-4.9594,-4.9594,-4.9605,-4.9625,-4.9621,-4.9536,-4.9524,-4.9513,-4.9499,-4.9628,-4.9628,-4.9708,-4.9709,-4.971]}]]